Theta_e
322 324 326 327 329 331 331 333 334 335 336 337 338 339 338 338 338 339 339 340 340 339 340 340 340 340 340 340 340 340 339 340 340 341 341 340 339 339 337 337 336 336 336 337 339 340 339 339 339 339 338 339 339 338 339 338 337 337 336 333 334 336 337 339 341 342 343 344 344 342 341 341 341 342 342 343 344 346 345 345 343 339 341 342 343
320 322 325 326 328 330 329 330 332 332 333 334 335 336 336 337 337 338 338 339 339 339 339 339 339 339 340 340 340 340 340 340 340 340 341 341 340 341 340 339 338 337 337 338 340 340 340 339 339 339 339 339 338 337 337 336 335 335 333 331 329 332 334 336 338 340 342 344 344 343 341 341 341 341 342 343 344 346 346 346 344 341 341 342 342
319 322 323 324 327 329 329 329 330 330 330 330 331 332 334 335 335 337 337 338 338 338 339 339 339 339 339 339 339 339 339 340 340 340 340 340 340 341 340 340 340 340 339 338 339 340 340 338 338 338 339 338 337 337 337 337 336 334 331 330 329 328 329 333 336 338 341 343 344 344 342 341 342 342 341 343 345 347 346 346 345 343 341 341 342
318 320 322 323 324 326 327 327 328 328 328 328 328 329 331 332 333 334 335 336 336 337 338 338 338 338 338 338 339 339 339 339 339 340 340 339 339 339 339 340 340 340 340 339 340 340 340 340 338 338 338 338 338 338 338 337 337 336 330 328 329 330 329 329 332 336 339 342 344 344 344 342 342 342 340 341 345 346 346 346 345 343 342 341 341
316 318 320 321 322 324 324 325 325 325 325 326 326 327 328 329 330 331 333 334 334 335 336 337 337 337 337 337 338 338 338 338 338 339 339 340 339 340 339 339 340 339 339 339 340 340 340 340 339 339 338 337 338 338 338 338 337 337 333 327 326 329 330 328 328 332 336 339 342 344 344 343 342 342 340 340 344 346 346 346 345 344 342 341 340
314 316 318 319 320 321 322 323 323 322 322 323 324 324 325 326 327 328 330 331 332 333 333 334 335 335 334 335 336 337 337 337 338 338 339 339 339 339 339 339 339 339 339 339 340 340 339 339 339 339 338 337 337 338 338 338 338 338 336 332 327 324 326 327 326 329 333 337 341 343 344 344 343 343 341 339 342 346 346 346 346 344 343 342 340
312 314 315 316 317 318 320 321 320 319 319 319 320 321 322 323 324 325 326 327 328 330 330 331 331 331 332 333 334 335 335 336 336 337 337 337 338 338 338 338 338 338 339 339 339 339 339 339 339 339 339 338 337 337 338 339 339 338 337 337 334 327 323 323 324 326 330 335 340 343 343 343 343 342 342 339 340 345 346 346 346 345 344 342 341
310 312 313 313 313 314 317 318 318 317 316 316 317 318 318 319 320 321 322 323 324 325 326 327 328 329 330 331 332 333 333 334 334 334 335 335 336 336 337 337 336 337 337 338 338 338 339 338 339 339 339 339 338 337 337 338 339 338 337 337 337 336 330 325 321 322 327 332 336 340 343 343 343 343 342 340 340 344 345 345 345 346 345 343 342
306 308 310 310 309 310 313 314 314 313 313 313 313 314 315 315 316 316 317 318 319 320 321 323 324 325 326 327 329 330 330 331 331 332 333 333 334 334 335 335 335 336 336 337 337 337 338 337 337 338 338 338 339 338 337 336 336 337 337 337 337 337 337 333 326 322 322 327 331 335 339 342 343 343 343 340 339 344 345 345 345 346 345 343 343
300 302 304 305 304 305 307 307 308 308 308 308 308 309 310 312 312 313 313 313 314 314 316 317 319 321 322 323 324 326 326 327 328 329 330 331 332 333 333 334 334 334 335 335 336 336 336 336 336 336 337 337 338 338 338 337 336 335 335 335 335 336 336 337 334 329 324 322 325 330 335 340 343 343 343 340 339 343 345 346 345 345 345 344 343
297 297 298 299 299 300 301 301 302 302 303 303 303 304 305 306 308 308 308 308 309 310 311 312 314 315 316 318 320 321 322 323 324 325 326 327 329 330 330 331 332 332 333 334 334 335 335 336 336 336 336 336 336 336 337 337 337 336 335 334 334 334 334 335 336 336 333 327 323 325 331 337 341 342 343 340 338 342 344 345 345 344 345 344 344
296 296 296 297 297 297 298 298 299 299 299 300 300 300 301 301 302 302 302 302 303 304 306 307 309 310 310 312 314 316 317 318 320 321 322 324 325 326 327 328 328 330 331 332 332 333 334 334 335 335 334 334 335 335 336 336 336 336 335 334 333 333 333 333 334 336 337 335 330 325 327 333 338 341 342 341 338 341 343 345 345 345 344 344 343
295 295 296 296 297 297 297 297 297 298 298 298 298 298 299 299 299 299 299 299 299 299 300 301 303 303 304 306 308 309 311 313 314 316 318 319 321 322 322 324 325 327 328 328 329 330 331 332 333 333 333 333 333 334 334 334 335 334 335 335 334 333 333 332 333 334 334 336 336 332 328 329 334 339 341 342 339 340 342 343 344 344 344 344 343
295 295 295 296 296 296 296 296 296 297 297 297 297 297 297 297 297 297 297 298 297 297 297 298 298 299 299 300 302 303 305 306 308 310 312 314 315 317 318 319 321 323 324 325 325 327 328 328 330 330 331 331 331 331 331 332 332 333 333 334 334 333 333 332 332 333 333 332 334 336 334 330 330 334 339 342 339 339 341 342 342 343 344 344 343
295 295 295 295 296 296 296 296 296 296 296 296 296 296 296 296 296 296 296 296 296 296 296 297 297 297 297 298 298 299 300 300 302 303 305 307 309 311 312 314 316 318 320 320 321 321 323 323 325 326 328 329 329 329 330 330 330 331 331 332 333 333 333 333 332 332 333 332 331 332 334 334 331 331 335 341 341 337 339 342 342 342 343 344 344
295 295 295 295 295 295 296 296 296 296 296 296 296 296 295 295 295 295 295 295 295 295 296 296 296 296 296 296 296 297 297 297 298 298 300 301 302 304 306 308 310 312 313 314 315 316 317 317 318 319 321 323 325 327 328 329 329 329 328 329 331 332 333 333 334 333 333 332 331 331 332 334 333 332 332 337 341 338 337 340 341 341 342 343 343
295 295 295 295 295 295 295 295 295 295 295 295 295 295 295 295 295 295 295 295 295 295 295 295 295 295 295 295 295 296 296 296 296 296 297 297 298 299 300 301 302 304 306 307 308 310 311 311 311 312 314 316 319 322 325 327 327 328 327 327 328 329 331 333 334 334 333 332 332 332 332 333 332 333 332 333 338 340 338 338 339 340 341 342 343
294 294 295 294 295 294 294 294 294 295 294 295 295 295 294 294 295 294 295 294 294 294 294 295 295 295 295 295 295 295 295 295 295 295 295 295 296 296 296 297 298 299 299 301 302 303 305 306 307 308 308 310 312 315 319 322 324 325 326 326 326 326 327 330 333 334 334 333 332 332 332 332 329 330 332 332 334 338 338 337 338 338 339 340 342
294 294 294 294 294 294 294 294 294 294 294 294 294 294 294 294 294 294 294 294 294 294 294 294 294 294 294 294 294 295 295 295 295 295 295 295 295 295 295 295 295 296 296 297 297 299 300 301 303 304 305 306 307 309 312 315 319 321 323 324 325 325 326 327 330 332 334 334 333 333 333 331 329 329 331 333 333 334 336 338 338 338 337 338 340
294 294 294 294 293 294 293 293 293 293 293 293 294 294 294 294 294 294 294 294 294 294 294 294 294 295 295 294 294 295 295 295 295 295 295 295 295 295 295 295 295 295 295 295 295 296 296 297 298 299 301 303 304 306 308 309 312 316 319 322 323 324 324 325 327 329 331 333 333 333 333 331 330 330 330 332 333 333 334 336 338 339 338 337 338
294 293 293 293 293 293 293 293 293 293 293 293 293 293 293 293 294 294 294 294 294 294 294 294 294 294 294 294 295 295 295 295 295 295 295 295 295 295 295 295 294 294 294 295 295 295 295 295 296 296 297 299 301 303 305 307 308 310 313 317 320 322 323 324 326 328 329 331 332 333 333 332 330 330 330 330 331 332 333 334 337 339 339 337 336
294 293 293 293 293 293 293 293 293 293 293 293 293 293 293 293 293 293 294 293 294 294 294 294 294 294 294 294 294 294 294 294 294 294 294 294 294 295 295 295 294 294 294 294 294 294 294 295 295 295 295 296 297 299 301 304 306 307 309 311 315 318 321 323 324 326 328 329 330 332 332 331 330 330 331 330 329 330 332 333 336 337 339 339 336
294 293 293 293 293 293 293 293 293 293 293 293 293 293 293 293 293 293 293 293 293 293 293 293 293 294 294 294 294 294 294 294 294 294 294 294 294 294 294 294 294 294 294 294 294 294 294 294 294 294 295 295 295 296 297 299 301 303 305 306 308 312 316 320 323 325 327 328 329 331 331 331 331 331 331 330 330 330 331 331 333 335 337 339 338
293 293 293 293 293 293 293 293 293 293 293 293 293 293 293 293 293 293 293 293 293 293 293 293 293 293 293 293 293 293 293 293 294 294 294 294 294 294 294 294 294 294 294 294 294 294 294 294 294 294 294 295 295 295 295 295 296 298 299 301 302 304 308 313 318 322 325 327 328 329 330 330 331 332 331 330 330 330 331 331 331 333 336 338 339
293 293 293 293 293 293 293 293 293 293 293 292 292 293 293 293 293 293 293 293 293 293 293 293 293 293 293 293 293 293 293 293 293 293 293 294 293 293 294 294 294 294 294 294 294 294 293 293 293 293 293 293 294 294 294 295 295 295 296 296 297 299 301 305 310 316 321 324 326 327 328 329 330 330 330 330 330 330 330 331 332 332 333 335 337
293 293 293 293 293 293 293 293 292 292 292 292 292 292 292 293 293 292 293 293 293 293 293 293 293 293 293 293 293 293 293 293 293 293 293 293 293 293 293 293 293 293 293 293 293 292 292 292 292 292 292 292 293 293 294 294 294 295 295 295 295 296 297 299 303 308 314 320 323 325 326 327 328 329 329 329 329 330 330 330 331 331 331 333 334
293 293 293 293 293 293 293 292 292 292 292 292 292 292 292 292 292 292 292 292 292 292 292 292 292 292 292 292 292 292 292 292 292 292 292 292 292 293 293 293 293 293 293 292 292 292 291 291 291 291 292 292 292 292 293 294 294 294 295 295 294 295 295 296 299 302 307 313 318 322 324 325 328 329 329 328 328 329 330 330 331 331 331 332 332
293 293 293 293 292 293 292 292 292 292 292 292 292 292 292 292 292 292 292 292 292 292 291 291 291 291 291 291 291 291 291 291 291 291 291 291 291 292 292 292 292 292 292 292 292 292 291 291 290 290 291 292 292 292 292 293 293 294 294 294 294 294 294 295 297 299 303 307 311 316 320 322 324 326 326 327 328 328 329 330 330 331 331 332 333
293 293 293 293 292 292 292 292 292 292 292 291 291 291 292 292 292 292 291 291 291 291 290 290 290 290 290 290 290 290 291 291 291 291 291 291 291 291 291 291 291 291 291 292 292 292 292 291 291 290 290 291 292 293 293 293 293 293 293 294 294 294 294 295 295 297 300 304 308 312 316 319 320 322 324 326 327 327 328 329 330 330 331 332 332
293 293 293 292 292 292 292 292 292 292 291 291 291 291 291 291 291 291 291 290 290 290 290 290 290 290 290 289 289 289 290 290 290 290 290 290 290 290 290 290 290 290 290 291 291 291 291 291 291 290 290 290 291 292 293 294 295 294 294 294 294 294 294 294 295 296 297 299 302 305 309 314 318 321 324 325 326 326 326 327 329 329 330 331 332
293 292 292 292 292 292 292 292 292 291 290 290 291 291 291 290 290 290 290 290 290 290 290 290 290 289 289 288 288 289 289 289 289 289 289 290 290 290 290 290 290 290 290 290 290 290 290 291 291 291 290 290 290 290 291 293 294 295 295 295 295 295 295 295 295 295 295 296 296 297 299 304 311 317 321 324 326 327 327 326 327 328 328 330 331
293 292 292 292 292 292 292 292 291 291 290 290 290 290 290 290 290 290 289 289 289 289 289 289 289 289 288 288 288 288 288 288 288 288 289 289 289 289 289 289 289 289 289 289 289 289 289 289 290 290 290 290 290 290 290 291 292 294 295 296 296 296 296 296 295 295 295 295 296 296 295 297 302 307 315 320 322 324 326 326 326 327 327 329 330
293 292 292 292 292 292 292 292 291 290 290 290 290 290 290 290 290 289 289 289 289 289 289 289 289 288 288 287 287 286 287 287 287 288 287 288 288 288 288 287 288 288 288 288 288 288 287 288 288 288 289 289 290 290 290 290 291 292 293 294 295 297 297 297 296 296 295 295 296 296 296 295 296 300 306 313 318 322 325 325 326 326 326 327 329
293 292 292 292 292 292 292 292 291 290 290 290 290 290 290 289 289 289 289 289 289 289 289 289 288 288 288 287 286 286 286 286 286 287 287 287 287 287 286 286 286 286 287 286 286 286 286 287 287 286 286 287 287 288 289 289 290 290 291 292 293 295 296 296 297 297 296 295 295 296 296 296 295 296 299 304 311 317 322 325 325 326 326 326 327
293 292 292 292 292 292 292 291 291 290 290 290 290 290 290 289 289 289 289 289 289 289 288 288 288 287 287 286 286 285 285 284 285 285 286 286 286 286 286 285 285 285 285 285 285 285 285 285 286 285 285 285 285 286 286 287 287 288 289 290 291 291 293 294 295 296 297 296 296 295 295 296 296 296 296 300 307 313 318 323 326 326 326 326 326
292 292 292 292 292 292 292 291 290 290 290 290 290 289 289 289 289 288 289 288 288 288 288 287 287 286 286 285 285 284 284 283 284 284 285 285 285 285 285 285 285 285 284 284 284 284 283 283 284 284 284 284 284 285 285 286 287 288 288 290 290 290 291 292 292 293 295 296 297 296 296 296 296 296 296 298 303 308 313 318 324 326 326 326 325
292 292 292 292 292 292 291 291 290 290 290 290 289 289 289 288 288 288 288 288 287 287 287 286 286 286 285 285 285 284 283 283 283 284 284 285 284 284 284 284 284 284 284 283 283 283 283 282 283 283 282 283 283 284 285 285 286 287 288 289 290 291 292 292 293 293 294 295 296 297 297 296 296 295 296 296 297 301 307 313 319 324 327 326 325
292 292 292 292 292 292 291 291 290 289 289 289 289 289 288 288 288 287 287 287 287 287 286 286 286 285 285 285 284 283 283 283 283 283 284 284 284 283 283 283 283 282 282 283 283 283 282 282 282 282 282 282 283 283 284 285 286 287 288 289 290 291 292 293 293 294 294 295 296 296 297 297 297 296 295 296 297 300 306 312 316 321 325 327 326
292 292 292 292 292 292 291 290 289 289 289 289 289 288 288 287 287 287 287 287 286 286 286 286 285 285 285 285 284 283 283 283 283 283 284 284 284 283 283 282 282 282 282 282 282 282 282 282 281 281 281 281 282 282 283 284 285 287 288 289 290 291 292 293 294 294 295 295 296 296 296 296 297 297 297 296 297 300 305 311 317 320 322 326 327
292 292 291 291 292 291 290 290 289 289 289 289 288 288 287 287 287 287 287 286 286 286 286 286 285 285 285 284 284 283 283 283 282 283 283 284 284 283 283 283 282 282 281 281 281 281 281 281 281 281 281 281 281 282 282 283 285 286 288 289 289 291 292 293 293 294 294 295 296 296 296 296 297 297 298 297 296 299 303 308 314 319 319 323 326
292 291 291 291 292 291 290 289 289 289 289 289 288 288 287 287 287 287 286 286 286 286 286 285 285 285 285 284 284 284 283 283 282 282 283 284 284 283 283 283 283 282 281 281 281 281 281 280 280 280 280 280 281 281 282 283 284 287 289 290 291 292 292 292 293 294 294 294 295 296 296 296 296 296 296 298 297 297 301 306 312 318 318 320 325
291 291 291 292 292 291 290 289 290 289 289 289 288 288 287 287 287 287 286 286 286 286 286 285 285 285 284 284 284 283 283 282 282 282 283 283 283 283 282 282 282 281 280 280 280 280 280 280 280 280 280 280 280 281 281 283 286 288 289 290 291 292 293 293 293 293 294 294 295 296 296 296 296 297 297 299 300 299 301 305 309 316 317 318 324
291 291 291 291 291 290 290 289 290 290 289 289 288 288 287 287 286 286 286 286 286 286 286 286 285 285 285 284 283 283 282 282 282 282 283 283 282 281 281 281 281 280 280 280 280 280 280 280 279 279 279 279 280 280 281 282 284 285 287 289 291 292 292 293 294 294 294 295 295 296 296 297 298 298 299 300 303 305 306 308 309 313 316 318 322
291 291 291 291 291 290 289 289 290 289 289 289 288 288 287 286 286 286 285 285 285 286 286 286 285 285 285 284 283 283 282 283 283 283 283 283 282 282 282 281 281 280 280 279 279 279 279 279 279 279 279 279 280 280 280 280 281 282 285 288 290 290 291 293 294 294 294 294 295 295 296 297 297 297 298 299 301 303 305 308 311 315 316 316 321
291 291 291 291 290 290 289 289 290 289 289 289 288 287 287 286 286 285 285 285 285 285 285 285 284 284 284 284 283 282 282 282 283 283 284 284 283 283 282 282 281 280 280 279 279 279 279 279 278 278 278 279 279 279 279 279 280 281 283 285 288 289 291 292 292 292 292 293 294 295 296 296 296 296 297 297 297 298 299 301 306 313 318 318 320
290 290 290 290 290 289 289 289 290 289 289 288 288 287 286 286 285 285 284 284 284 284 284 283 283 282 282 282 282 282 281 281 283 284 284 283 283 282 282 281 280 279 279 279 279 279 279 278 278 278 278 278 278 279 279 279 279 280 281 283 285 287 289 289 289 290 291 292 293 294 295 295 296 296 296 296 297 298 299 299 300 304 311 318 321
290 291 290 290 290 289 289 289 289 289 289 288 288 287 286 286 285 284 284 283 283 283 283 282 282 282 282 281 282 282 282 282 283 284 284 283 282 281 280 279 278 278 278 278 278 278 278 278 278 278 278 278 278 278 278 279 278 279 279 281 282 284 286 288 288 289 290 291 292 293 294 295 295 296 296 296 297 297 298 298 298 297 300 309 317
290 291 290 290 290 289 289 289 289 289 289 288 287 287 286 285 285 284 284 283 283 283 282 281 281 281 281 281 281 281 282 283 284 284 283 283 282 281 280 279 278 278 278 277 277 277 277 277 277 277 277 277 277 278 278 278 278 279 279 279 281 283 284 286 288 289 290 290 291 292 293 294 295 295 295 296 296 296 296 297 299 299 299 302 309
290 291 290 290 290 289 289 289 289 289 289 288 287 286 286 285 284 284 283 283 282 281 281 280 280 280 280 280 280 280 281 282 283 283 283 282 281 281 280 279 279 278 277 277 277 277 277 277 277 277 277 277 277 277 277 277 278 278 278 279 280 282 284 286 287 289 290 290 290 290 291 293 294 295 296 296 296 296 296 297 297 299 301 301 303
290 291 290 290 290 289 289 289 289 289 289 288 287 286 285 284 284 283 283 282 281 281 280 280 279 279 278 279 278 278 279 281 282 282 282 281 280 280 279 279 278 277 277 276 276 276 276 276 276 276 276 276 276 277 277 277 277 277 278 279 280 282 284 286 287 289 289 290 290 290 291 292 293 294 295 296 296 296 296 296 297 299 301 303 304
289 290 290 290 290 289 289 289 289 289 289 288 287 286 285 284 283 282 282 281 281 280 279 279 279 278 278 278 277 278 279 280 280 281 281 280 280 279 278 278 277 276 276 276 276 276 276 276 276 276 276 276 276 276 276 277 277 277 277 278 279 279 281 283 286 288 288 289 290 290 291 292 293 294 296 296 296 296 296 296 297 298 299 301 302
Wind_Speed
13 13 13 13 15 16 16 13 12 10 10 11 11 11 10 10 10 9 8 8 6 6 7 7 7 7 7 6 6 7 7 7 7 7 6 7 7 7 7 6 6 6 7 7 6 6 7 7 8 8 8 7 7 8 9 9 10 10 10 10 10 9 9 9 10 10 11 12 12 11 10 10 10 10 9 10 9 10 12 11 13 12 11 12 13
11 11 10 11 13 16 15 13 13 10 9 10 10 11 10 10 10 10 10 10 9 8 8 7 7 7 8 8 8 8 9 9 8 8 8 7 7 8 8 8 8 8 9 8 8 7 7 7 7 7 8 7 8 9 10 11 11 11 11 11 10 10 10 9 10 10 11 12 12 12 11 11 10 10 10 10 10 10 12 12 14 14 13 13 14
8 8 8 9 11 14 13 13 13 11 10 9 10 10 10 10 10 10 10 10 10 10 10 8 8 7 8 8 8 9 9 9 9 9 9 9 8 9 9 9 10 11 11 10 10 8 8 7 7 8 8 9 9 10 11 12 13 14 13 12 11 11 11 11 10 10 11 11 12 13 12 12 11 11 10 10 10 11 13 13 14 16 15 15 15
6 6 7 8 9 12 12 11 12 12 11 10 10 10 10 9 9 9 9 10 10 10 10 10 10 9 9 9 8 8 9 9 9 9 9 10 10 10 10 10 10 11 11 11 10 9 9 9 9 9 10 10 10 11 12 12 13 15 14 13 13 12 12 12 11 11 11 12 12 13 14 13 12 12 12 11 11 12 14 14 15 16 16 16 17
7 8 8 8 10 11 11 11 11 11 11 11 11 10 10 9 9 9 9 9 10 10 10 10 11 10 9 9 9 9 9 9 9 9 9 9 9 10 9 9 9 11 11 12 11 10 10 11 11 11 11 11 10 11 11 12 13 14 14 12 12 12 12 12 12 12 11 11 12 14 15 14 13 13 13 12 11 13 15 15 15 17 17 19 19
8 8 9 10 11 13 12 12 11 11 11 11 11 11 11 10 10 9 9 8 9 9 9 9 9 10 10 10 10 10 10 10 9 8 8 8 8 9 9 9 10 10 11 12 12 11 11 11 12 12 12 12 12 11 11 12 13 13 14 12 11 12 13 13 12 12 12 12 12 14 15 15 14 15 14 13 12 13 15 16 17 18 19 20 19
7 7 8 10 12 13 13 13 12 12 12 11 11 12 12 11 11 10 9 9 8 8 8 8 8 9 11 11 11 11 11 10 10 8 8 8 8 8 8 9 10 10 11 11 12 13 12 11 11 12 11 12 13 13 13 14 14 15 15 14 13 12 12 13 13 12 12 12 12 13 15 17 17 17 16 15 13 14 16 17 18 19 20 21 19
7 7 8 10 12 12 12 12 12 12 12 12 11 11 11 11 11 11 10 9 9 8 7 7 7 8 9 10 11 11 10 10 10 10 10 10 9 9 8 9 10 10 10 11 12 13 13 13 13 12 11 11 12 13 14 15 16 16 16 15 14 13 13 13 13 13 13 13 13 13 14 16 18 19 18 16 14 14 16 18 19 19 20 21 20
9 9 9 10 12 11 11 11 12 12 12 12 12 12 12 12 11 11 11 10 9 9 8 8 7 7 7 7 8 9 9 9 9 9 9 10 10 9 9 9 10 10 10 11 11 12 12 13 14 14 14 12 12 13 15 16 16 16 16 15 15 14 14 13 13 13 14 14 15 15 15 16 17 19 19 17 15 15 17 18 18 19 20 20 22
11 10 10 12 12 11 11 12 12 13 13 13 13 13 13 12 12 11 11 11 10 10 9 9 8 7 7 6 6 6 7 8 8 8 8 8 8 8 10 10 10 11 11 11 11 11 12 12 13 13 14 13 13 13 13 15 16 16 16 15 14 14 15 14 14 14 14 16 16 16 17 16 17 19 21 19 16 16 17 18 19 20 20 21 23
11 11 11 12 13 11 11 12 12 12 12 13 13 13 13 13 13 12 11 11 10 10 10 9 9 8 7 7 6 6 6 7 8 8 7 7 6 6 9 9 10 11 11 12 11 11 11 11 12 12 13 13 13 13 13 14 15 16 16 16 16 15 15 15 16 15 15 16 17 17 17 17 18 20 21 20 18 17 18 20 21 21 22 23 24
12 12 11 11 12 12 11 11 11 11 11 11 12 12 12 12 12 12 12 11 11 10 10 9 9 8 8 7 7 7 7 7 8 8 7 7 7 7 8 8 9 10 10 10 10 10 11 11 11 11 12 13 13 13 13 13 14 15 16 18 18 18 17 16 17 17 16 17 17 18 18 17 18 20 21 21 19 19 20 21 23 22 24 26 26
13 13 12 11 12 12 11 11 11 11 11 11 11 11 11 11 11 12 12 12 11 11 11 10 10 9 9 8 8 7 7 7 8 8 8 8 8 9 9 9 9 9 8 9 10 10 11 12 11 12 12 13 13 14 14 14 14 15 15 17 19 20 20 19 18 18 19 19 18 18 19 19 19 19 20 21 21 21 22 23 24 23 24 27 27
13 13 12 11 11 12 12 11 11 11 11 11 11 11 11 11 11 11 11 11 11 12 11 11 11 10 9 9 9 8 8 8 8 8 9 9 9 9 9 10 11 10 10 11 11 12 12 13 14 14 15 14 14 15 15 15 15 15 15 16 17 20 21 21 20 20 21 21 21 20 19 20 20 19 19 21 23 24 23 23 24 24 24 27 28
13 13 12 12 12 12 12 12 11 11 11 12 12 12 12 12 11 11 11 11 11 11 11 11 11 10 10 10 9 9 9 9 9 9 9 10 10 10 10 10 11 12 12 13 13 13 13 14 15 16 16 16 16 16 16 16 16 16 16 17 18 18 20 21 21 21 22 22 22 22 21 21 21 20 19 20 23 26 24 24 25 25 25 26 28
13 12 12 12 13 12 12 12 12 12 11 12 12 12 13 13 13 13 12 12 11 11 11 10 11 11 10 10 10 10 10 10 10 10 10 10 10 10 11 11 12 13 13 14 14 14 15 15 15 16 16 16 17 17 18 18 18 18 17 18 19 19 19 20 21 22 22 23 23 23 22 22 22 20 20 20 23 27 27 26 26 26 26 27 28
12 12 12 12 13 13 13 13 12 12 12 12 13 13 13 13 13 13 13 13 13 12 12 11 11 11 11 11 11 11 11 10 10 11 11 11 11 11 11 11 12 13 13 14 15 15 16 16 16 16 16 17 17 18 19 20 20 20 20 20 20 21 20 20 21 22 22 23 24 24 22 21 23 21 20 20 22 28 29 28 27 27 28 28 28
12 11 12 12 13 13 13 13 12 12 12 13 13 14 13 13 14 13 13 13 13 13 13 13 12 12 12 12 12 12 13 13 13 13 12 12 12 12 12 12 13 13 14 14 15 16 16 17 17 17 18 18 18 19 20 20 21 21 21 22 22 22 22 22 22 21 22 24 25 25 23 23 26 24 21 20 22 27 31 31 30 29 30 29 29
12 11 12 12 12 13 13 13 12 12 13 13 13 13 14 13 14 14 14 14 13 13 13 13 13 13 14 14 14 14 14 14 15 15 15 15 14 14 13 13 13 14 14 15 15 15 16 17 18 19 19 19 20 20 20 20 21 21 21 22 23 24 24 24 24 23 22 23 24 25 25 26 27 25 22 21 22 26 30 32 33 32 31 31 31
12 11 12 12 12 12 12 12 12 12 12 13 13 14 14 14 14 14 14 14 14 14 14 14 14 14 15 15 15 16 16 16 16 17 17 18 17 17 16 15 15 14 14 15 15 15 16 17 18 19 19 20 21 21 21 21 21 21 21 21 22 23 25 26 25 25 24 23 24 24 25 27 28 27 25 23 23 25 29 32 34 35 33 32 33
12 11 11 11 11 11 11 11 11 12 12 12 13 14 14 14 14 14 14 15 15 14 14 14 14 15 15 15 16 16 17 18 18 19 19 19 19 19 19 19 18 17 16 16 15 16 16 16 17 18 19 20 21 22 22 22 21 21 22 21 21 22 23 24 24 25 25 25 26 25 25 27 28 28 27 26 25 25 28 31 33 36 36 33 34
12 11 10 10 10 10 10 10 10 10 10 11 11 12 13 13 13 14 14 14 14 14 14 15 15 16 16 17 17 18 18 18 19 19 20 20 20 21 21 21 21 20 20 19 18 17 16 16 17 18 18 19 20 21 22 23 23 23 23 22 22 22 21 23 23 23 24 24 25 25 26 28 30 29 28 28 29 26 28 31 32 35 37 36 35
12 11 10 9 8 9 8 8 9 8 8 9 9 10 11 12 13 13 14 14 14 14 15 15 16 16 17 17 18 19 19 19 20 20 20 20 20 21 21 21 22 22 21 21 20 19 18 17 17 18 18 19 20 21 22 22 23 24 24 23 23 23 22 22 22 22 23 25 25 25 27 29 30 31 30 29 30 29 29 31 33 33 35 37 36
14 12 11 9 7 8 8 8 8 7 7 7 8 9 10 10 11 12 13 13 13 14 14 15 15 16 17 17 18 18 18 19 19 20 20 21 21 22 22 22 23 23 23 22 22 21 21 20 19 19 19 20 20 21 22 23 23 24 24 24 24 24 23 23 22 22 22 24 26 26 27 28 29 31 32 32 31 31 32 32 33 33 35 37 36
15 13 11 9 8 7 7 7 6 6 6 7 8 8 9 9 10 11 11 12 12 12 12 13 14 15 15 16 17 17 18 18 18 19 20 21 22 22 23 24 24 25 25 25 25 24 23 22 22 21 21 21 21 22 22 23 24 25 25 25 26 26 25 25 24 23 22 24 26 26 27 28 29 32 33 34 34 33 33 33 34 34 35 36 36
14 13 11 9 8 7 7 6 5 5 6 7 8 8 8 9 10 11 10 11 11 12 12 13 13 14 15 15 15 16 16 17 17 18 18 19 21 22 23 24 25 26 26 27 26 26 25 24 23 23 22 22 22 23 23 24 24 25 26 26 27 27 27 27 26 25 24 24 25 27 28 29 30 32 33 35 36 34 34 34 36 36 36 36 37
16 13 11 9 8 7 5 4 3 4 5 6 6 6 8 9 9 9 10 11 11 12 12 13 14 14 14 15 15 16 17 17 18 18 19 19 20 21 21 22 23 24 26 27 27 27 27 26 25 25 24 24 24 24 24 24 25 26 27 27 28 28 28 29 28 27 26 26 27 27 28 29 29 31 33 36 37 36 35 35 36 37 37 37 38
17 14 12 10 8 7 5 3 2 2 3 4 4 5 6 7 8 8 9 10 11 11 12 12 13 13 14 15 15 16 17 18 19 20 21 21 21 21 20 21 21 22 23 24 26 27 27 27 27 27 26 26 25 25 25 25 26 27 28 29 29 29 30 30 29 28 27 28 29 29 29 30 32 34 35 36 37 37 37 36 37 38 38 38 38
18 16 14 11 9 8 6 4 2 1 1 2 3 4 5 6 7 7 8 9 10 11 11 11 12 13 14 14 16 16 17 18 19 20 21 22 23 23 23 23 22 22 22 22 23 24 25 27 27 28 28 27 26 25 24 25 25 26 28 29 30 30 31 31 31 30 29 28 29 30 30 30 33 34 35 35 36 38 38 38 38 38 39 39 39
19 17 15 13 11 9 7 5 3 1 0 1 2 3 4 5 6 7 8 8 9 10 10 11 12 13 13 14 15 16 17 18 19 20 20 21 22 23 24 24 24 24 23 22 21 21 22 24 26 28 29 29 28 27 25 23 23 24 26 28 30 31 31 32 32 33 32 31 30 31 32 32 31 31 33 35 36 38 39 39 39 39 40 40 40
20 18 16 14 12 11 9 7 5 2 1 0 1 2 3 4 5 6 7 8 8 9 10 10 11 12 12 13 14 15 16 17 18 20 20 21 22 23 23 24 24 25 24 24 22 21 20 21 22 24 26 28 29 30 28 26 24 22 22 24 27 29 31 32 34 35 35 35 35 36 36 35 34 33 32 34 36 38 39 40 40 41 41 41 41
21 19 17 15 14 13 11 9 6 4 2 2 1 2 2 3 4 5 6 7 8 8 9 9 10 10 11 12 14 15 16 17 18 20 21 22 22 23 23 24 24 24 24 24 24 23 22 21 21 21 22 24 26 28 29 30 29 27 24 23 23 24 28 30 33 36 36 37 37 38 39 38 37 36 35 35 37 38 39 40 40 41 42 42 40
22 19 18 17 16 15 13 10 7 5 4 3 2 2 1 2 3 4 4 6 7 7 8 8 9 9 10 12 13 14 15 16 18 19 20 21 22 22 23 23 23 24 24 24 25 25 25 24 24 23 22 23 24 26 27 29 31 32 30 28 25 23 24 26 29 33 37 38 37 37 39 41 41 40 38 37 37 38 39 40 40 41 42 43 41
23 20 20 19 18 17 14 11 9 7 5 4 3 2 1 1 1 3 4 5 7 7 8 8 9 9 10 11 12 13 14 15 17 18 19 20 21 22 22 22 22 23 23 23 24 24 25 26 26 25 25 23 23 24 26 28 30 32 33 34 32 30 27 25 26 28 32 37 39 40 40 41 42 43 41 40 39 39 40 40 41 42 42 43 43
24 23 21 20 20 18 15 12 10 8 6 5 4 3 2 1 1 2 3 5 6 7 7 8 8 8 9 10 12 13 14 14 16 17 19 19 20 21 21 22 22 23 23 23 23 23 24 25 26 26 26 25 23 24 25 27 30 30 31 33 34 35 35 33 31 29 29 32 37 41 41 41 42 43 43 41 38 38 40 40 41 42 43 43 44
25 24 22 21 21 19 16 14 11 9 7 6 4 3 2 1 1 3 4 5 6 6 7 7 8 8 9 10 12 13 14 14 16 18 19 19 20 21 22 22 23 23 23 23 23 22 23 23 24 25 26 26 27 27 26 26 27 27 28 29 30 34 36 36 38 37 34 32 32 35 39 42 43 43 43 42 40 39 39 41 41 42 44 44 44
26 25 23 22 22 20 17 14 11 10 8 6 4 3 2 1 2 3 4 5 6 6 6 6 7 7 9 10 11 13 14 15 16 18 19 20 21 21 22 22 23 23 23 23 23 22 22 23 24 24 23 24 24 26 28 28 27 27 27 26 27 30 31 32 35 37 38 37 35 33 33 38 42 44 45 45 45 44 41 41 43 43 44 45 45
26 25 24 23 22 21 18 14 12 11 9 6 4 4 3 2 3 3 4 5 6 6 6 6 7 7 9 10 12 13 15 16 17 19 19 21 21 21 22 22 22 22 22 23 23 23 23 23 24 25 24 23 21 23 26 28 29 29 29 27 26 27 28 30 33 34 34 35 37 38 36 35 37 41 44 45 45 43 40 39 40 43 45 45 45
28 26 24 23 22 21 17 14 13 12 9 7 5 4 4 4 4 4 5 5 6 7 6 7 7 8 9 11 12 14 16 17 18 19 20 21 22 22 22 22 22 22 22 23 23 24 25 24 25 25 25 24 23 24 26 26 26 27 29 31 31 29 29 29 31 34 33 34 36 38 40 39 37 36 39 43 44 42 39 37 36 41 46 45 45
29 27 26 24 23 21 18 16 15 13 11 8 6 6 5 5 5 5 5 6 7 7 6 8 8 8 10 11 13 15 17 18 19 20 21 22 22 23 23 23 23 23 24 23 23 24 24 25 25 25 26 25 24 26 26 25 25 26 27 31 32 29 30 31 31 33 33 35 35 34 35 36 37 38 38 39 43 44 40 38 36 39 45 47 45
29 28 27 25 25 22 19 18 17 15 13 10 8 7 6 6 6 6 6 7 7 7 7 7 8 9 10 12 14 16 17 18 19 20 21 22 22 23 24 24 24 24 25 24 24 24 24 24 25 25 24 23 22 23 23 23 22 21 21 25 28 27 29 33 32 31 32 34 35 34 35 35 37 41 41 38 38 43 42 39 37 38 44 49 47
31 29 27 27 26 23 20 19 19 18 15 11 9 8 7 6 6 6 8 9 8 8 9 8 9 10 11 13 15 16 18 19 19 20 21 22 22 23 24 24 24 25 25 26 25 25 25 25 25 24 22 20 20 20 19 16 13 15 16 19 21 22 24 26 26 27 28 30 31 32 34 34 35 35 34 33 33 37 40 39 38 38 43 48 48
32 31 29 28 28 24 22 20 20 19 16 12 10 8 7 6 7 7 8 10 9 9 10 10 10 12 12 13 15 17 18 19 20 20 21 22 22 23 24 24 25 25 26 27 27 27 27 26 24 23 21 20 18 17 14 10 11 16 15 11 11 14 15 12 13 17 20 22 25 28 29 30 32 33 31 32 32 32 33 35 38 39 41 47 48
32 32 31 30 29 26 23 22 21 20 16 13 10 7 7 7 8 8 9 10 10 10 11 11 11 13 14 14 16 17 18 19 20 21 22 23 24 25 25 26 26 26 26 27 28 28 27 26 25 21 19 19 18 15 13 11 11 12 9 7 7 8 10 6 6 15 19 20 26 28 29 30 31 33 33 32 32 33 34 34 35 37 40 45 48
34 35 34 32 30 27 24 23 22 20 17 14 11 8 8 8 8 9 9 10 11 11 11 12 13 14 16 16 16 17 18 19 19 21 23 24 25 26 27 27 27 27 27 28 29 30 28 27 25 21 18 19 21 19 15 12 12 11 9 9 6 4 8 8 13 19 19 19 25 26 26 29 30 30 31 33 38 40 40 39 37 36 38 44 46
36 36 34 32 30 27 24 23 22 20 17 14 11 9 9 9 9 9 10 10 13 13 12 13 15 16 17 18 18 18 18 19 20 22 23 24 25 26 26 27 27 27 27 28 29 30 30 28 25 22 19 18 20 23 20 14 13 15 16 18 17 14 13 12 11 14 18 19 23 25 28 30 31 33 32 34 37 36 35 37 40 41 40 41 45
37 36 34 32 29 26 24 23 22 20 18 15 12 10 9 9 10 10 10 10 13 15 14 14 16 17 18 19 19 18 19 20 21 22 23 24 26 26 27 27 27 28 28 28 30 30 29 28 26 22 21 19 18 22 24 18 15 15 17 22 27 27 26 20 13 11 15 18 18 21 27 27 28 30 32 33 33 34 36 38 42 45 44 43 44
36 37 36 34 30 26 24 23 21 20 18 16 13 11 10 10 10 10 11 11 13 15 15 16 17 18 19 19 20 20 20 21 22 23 24 25 26 27 28 28 28 29 29 30 31 30 28 27 25 23 22 22 19 22 25 21 18 16 14 18 23 27 29 29 26 19 13 14 16 18 24 29 31 32 34 36 36 35 35 34 35 40 43 44 44
36 38 38 34 30 27 24 23 21 20 19 17 14 12 11 11 10 10 12 12 13 15 16 17 18 18 19 20 20 21 21 22 23 24 25 26 27 28 29 30 30 31 31 32 33 32 31 29 27 24 23 23 22 22 25 24 22 20 17 18 21 23 25 28 31 28 19 16 17 16 18 24 28 32 35 34 32 31 30 32 34 36 39 43 45
37 38 37 34 30 27 24 23 22 20 19 18 15 12 11 11 11 11 12 13 13 15 16 18 18 18 19 21 21 21 23 24 25 26 26 27 27 28 30 31 31 32 32 33 34 33 33 31 29 26 25 25 24 23 26 26 25 25 22 20 20 19 18 19 22 25 21 18 18 17 17 17 18 25 32 32 32 32 33 34 34 35 36 38 41
36 37 37 35 31 27 25 24 22 20 20 18 15 13 12 11 11 11 12 13 13 14 16 18 18 18 20 21 22 23 24 26 26 27 27 28 29 30 31 32 32 34 33 33 34 33 33 31 30 28 26 26 26 25 27 28 28 28 26 24 24 22 19 18 21 23 18 14 16 16 17 19 20 24 31 32 33 33 32 33 33 34 37 40 44
Wind_Direction
18 23 15 16 22 19 9 11 16 20 31 32 36 33 29 27 27 24 20 15 7 353 339 329 319 318 317 312 314 311 310 306 304 306 309 310 312 319 324 333 336 340 344 343 337 337 336 333 334 329 326 322 315 309 304 300 293 293 287 284 284 285 289 286 279 275 269 261 256 251 253 258 259 258 257 260 258 251 245 239 230 226 224 213 208
23 32 26 29 37 33 22 25 23 26 28 30 37 36 38 36 35 34 33 31 26 20 9 358 343 333 321 316 316 313 312 307 305 302 297 296 301 305 306 313 316 322 326 327 325 322 322 322 323 320 320 317 315 312 310 310 304 297 290 286 284 283 288 290 282 275 270 263 257 253 254 260 262 259 256 257 254 248 242 236 228 222 221 212 209
47 46 44 45 50 44 37 40 38 44 39 33 37 37 44 43 44 43 43 42 37 35 29 21 10 358 345 337 330 322 319 315 314 309 305 306 308 300 294 298 301 309 314 316 318 316 317 318 318 315 313 310 313 315 315 318 320 316 302 289 286 285 284 286 286 278 271 266 261 255 254 259 262 262 258 257 251 244 239 235 228 222 222 214 209
76 72 65 60 60 52 45 48 48 51 50 48 46 44 46 44 46 45 48 47 43 44 39 35 27 19 11 3 355 344 335 326 319 316 317 316 315 307 298 298 300 302 302 304 308 310 311 312 315 314 311 308 310 314 313 313 318 322 315 295 285 288 287 284 285 282 274 268 265 260 256 257 260 262 261 258 251 245 241 236 230 223 223 216 211
88 84 77 74 68 61 51 50 52 52 54 55 53 52 49 47 48 46 50 49 48 48 45 43 37 32 27 24 18 8 357 347 335 325 324 321 317 312 307 305 304 304 303 302 301 303 306 307 309 308 310 309 306 305 308 311 314 316 317 309 289 285 288 287 285 283 279 270 267 263 257 256 257 260 262 258 250 246 244 237 232 227 224 218 215
86 85 80 79 73 65 57 54 54 55 56 57 57 56 55 53 51 50 50 50 48 46 46 42 38 36 33 32 27 20 15 8 359 344 336 330 323 318 312 306 306 308 308 307 304 300 299 299 303 304 306 308 307 302 301 305 308 308 313 317 305 291 286 287 286 283 281 276 268 264 260 256 256 259 261 257 250 249 248 240 234 229 224 219 218
89 91 85 83 76 69 64 61 58 60 60 60 61 58 59 58 55 54 52 51 48 44 41 36 32 33 33 33 30 27 25 19 14 10 2 351 343 337 323 311 309 311 311 312 312 308 304 297 297 300 301 306 306 302 298 297 299 304 310 313 314 308 296 287 283 282 281 279 270 264 263 260 257 258 259 257 250 248 250 244 237 231 225 220 219
107 104 97 90 80 77 73 69 65 64 64 63 63 61 61 59 58 57 55 54 51 48 42 36 28 24 25 29 29 28 28 24 22 26 21 9 1 350 338 327 320 316 315 318 316 315 317 309 304 304 301 304 306 305 301 299 298 301 306 308 309 310 307 298 287 282 279 278 272 267 267 264 261 259 258 256 251 247 248 247 239 233 227 220 220
112 108 106 99 88 85 81 77 73 69 68 67 65 64 63 61 59 56 55 54 52 53 48 44 33 24 19 17 20 19 21 19 17 23 24 21 12 0 353 343 333 326 322 324 323 322 323 317 315 312 306 304 303 304 303 301 300 299 303 304 305 305 305 304 296 289 281 276 274 272 269 266 264 260 257 254 250 247 247 246 239 233 227 220 222
107 107 109 105 96 93 90 85 80 76 72 71 69 67 67 65 62 58 56 54 52 52 51 50 43 35 26 19 15 10 11 7 7 10 13 18 12 8 5 356 344 333 331 333 333 329 323 318 316 315 311 309 300 296 300 301 301 301 302 303 304 303 301 300 298 294 288 280 275 273 271 268 265 260 256 253 249 247 246 244 241 235 227 220 223
104 105 106 104 100 98 96 91 86 82 77 74 72 71 70 68 65 61 58 56 54 51 50 49 45 42 37 32 25 19 14 9 7 1 359 2 356 4 7 5 359 346 343 340 338 336 332 326 321 321 314 307 299 293 296 298 299 301 303 304 302 301 300 299 297 293 289 286 280 275 272 270 266 260 256 253 249 248 246 242 243 238 229 224 223
101 100 100 101 100 97 95 93 90 86 83 80 75 73 70 68 65 61 59 56 54 53 51 49 46 43 40 36 31 26 20 14 8 358 351 348 347 354 354 360 2 353 349 341 335 330 333 335 327 327 318 305 299 293 294 294 295 297 299 302 302 301 300 298 297 293 289 288 284 280 276 271 267 263 257 253 249 247 245 240 241 238 231 228 226
100 97 96 96 96 95 92 91 89 86 84 81 77 73 69 65 62 59 56 54 53 52 51 49 46 43 39 35 30 25 20 13 4 357 349 342 341 344 344 346 345 337 333 329 322 313 316 323 318 319 317 309 303 297 293 291 292 293 294 298 301 301 301 299 295 293 291 290 286 283 279 275 269 266 259 253 248 245 246 241 240 239 235 232 228
101 97 95 94 94 95 92 90 88 86 82 78 76 73 70 66 62 58 54 51 48 47 47 45 43 41 39 34 30 25 19 12 2 355 348 343 339 337 338 339 335 329 326 325 323 317 314 314 310 308 306 306 308 306 299 291 289 290 289 290 293 294 297 298 295 292 291 291 288 285 281 277 272 268 263 254 248 245 247 245 241 240 238 235 231
102 99 97 97 94 94 92 90 87 85 82 79 76 72 70 66 63 59 55 51 48 45 43 41 40 37 34 32 28 26 20 15 7 357 350 345 340 336 334 331 328 323 322 324 324 322 319 315 312 308 304 303 304 306 301 291 286 284 283 283 285 288 291 293 292 291 290 289 288 286 283 279 275 271 267 258 250 246 247 247 243 241 240 237 233
105 102 102 100 96 93 90 88 86 84 84 82 78 73 68 64 60 56 54 51 49 47 44 42 39 36 33 30 27 24 20 15 10 3 357 351 346 341 337 332 326 320 318 318 318 318 318 318 316 314 311 307 302 299 293 288 287 286 282 280 281 283 285 288 287 286 288 287 286 286 283 280 278 274 269 263 254 248 248 248 246 244 243 240 236
108 107 105 100 96 93 89 87 85 84 82 80 77 72 66 62 59 55 53 49 47 45 43 43 40 37 32 29 27 24 21 17 13 6 1 356 352 347 342 337 331 324 321 317 315 314 314 316 317 317 316 312 307 299 292 288 288 288 285 281 280 280 280 283 285 282 282 285 284 283 280 279 279 277 272 266 259 252 249 248 247 245 244 243 239
112 109 103 96 94 90 88 86 84 82 79 77 74 71 66 63 60 56 54 49 47 43 41 40 38 38 34 31 27 24 22 20 17 13 8 3 357 353 348 343 336 329 325 321 317 314 313 313 313 315 315 314 310 304 299 295 291 287 285 284 280 279 277 277 280 277 276 281 282 280 278 277 279 279 274 268 261 256 251 247 247 246 246 246 244
116 110 102 96 92 88 85 82 79 78 75 73 72 71 67 63 61 58 56 52 49 46 42 39 36 35 33 31 29 27 25 22 20 17 15 11 6 2 358 352 343 335 331 326 321 317 314 312 310 311 311 311 310 308 306 302 298 292 287 283 280 278 276 273 274 272 271 275 277 276 275 276 279 279 274 269 261 259 256 250 248 247 247 248 248
121 112 105 99 95 90 84 81 79 76 72 70 67 65 63 59 58 57 55 54 51 49 46 42 38 35 32 29 27 25 23 20 19 17 15 13 10 7 5 2 355 347 340 333 328 322 317 314 311 310 308 306 306 305 306 305 303 299 294 287 283 280 277 275 273 272 270 270 272 273 273 275 278 277 274 271 263 260 259 255 251 249 248 248 249
125 116 108 104 100 93 86 84 82 78 72 68 63 59 57 54 53 52 51 50 48 46 43 41 37 35 31 28 25 23 21 18 16 14 13 10 8 7 4 3 359 355 350 344 337 330 324 319 314 311 308 306 303 301 301 301 302 301 299 294 290 285 282 279 276 273 270 270 271 270 270 273 276 277 275 272 267 262 261 259 255 252 249 247 248
131 122 115 110 104 96 92 91 86 79 71 66 60 56 53 51 50 48 48 46 44 41 38 36 33 31 28 26 24 22 20 17 16 14 12 10 7 6 3 2 359 356 354 351 346 339 331 325 320 316 311 308 305 303 300 298 298 298 299 298 295 291 287 284 280 274 269 268 269 269 270 272 275 276 273 272 271 266 263 262 259 256 251 247 247
141 135 127 117 110 102 98 96 88 80 71 64 59 55 52 50 49 47 46 43 40 37 34 31 28 27 25 23 23 21 18 17 16 13 11 9 8 6 4 2 360 357 355 352 350 346 339 331 325 321 317 314 311 310 307 303 300 299 299 300 300 297 293 289 286 282 275 270 268 269 271 272 273 274 272 271 272 269 266 265 262 260 255 248 245
153 146 137 128 119 110 103 97 88 81 71 63 57 54 52 50 50 47 44 41 37 33 30 27 25 23 21 20 20 18 16 15 13 11 8 7 6 5 3 1 360 358 355 353 351 349 345 339 332 327 323 321 319 317 315 312 308 305 304 304 303 302 299 294 291 289 283 276 271 270 273 274 273 273 272 270 270 270 267 267 265 262 259 252 246
157 151 144 136 124 113 107 97 87 77 68 60 54 50 51 50 49 47 42 40 35 32 28 25 23 20 18 18 16 13 12 12 11 9 7 6 5 3 2 1 360 358 356 354 352 350 348 344 340 335 331 328 325 322 320 317 314 311 309 307 306 304 302 299 294 291 287 282 277 274 275 276 275 275 274 270 268 268 267 267 265 263 261 257 251
158 155 149 140 127 120 113 101 87 72 63 55 49 45 47 47 47 45 41 40 34 30 28 25 22 19 16 14 11 9 8 9 9 9 8 6 5 4 2 1 360 359 358 356 353 351 348 346 343 339 335 331 327 323 321 319 316 314 311 308 307 306 304 302 297 293 289 286 281 277 276 277 278 277 275 272 268 266 267 266 264 263 262 261 258
163 160 151 144 136 132 126 112 93 66 55 46 38 34 38 41 43 40 36 35 31 27 26 24 22 19 16 13 11 9 8 9 8 9 10 9 8 6 4 2 360 358 358 356 353 351 348 345 342 340 337 333 329 325 321 318 316 314 312 309 307 306 305 303 301 296 292 287 283 279 276 276 277 275 272 272 269 265 265 265 264 265 264 262 260
164 161 156 152 151 147 146 140 113 63 45 34 20 20 31 38 39 35 33 32 27 26 26 26 23 21 19 16 15 12 11 9 8 9 9 10 10 9 7 5 3 0 359 356 353 350 347 344 341 339 337 334 331 327 323 319 316 313 311 310 308 306 304 303 301 299 296 291 286 281 277 273 270 271 272 272 270 266 264 263 263 264 265 263 259
167 163 161 160 159 160 164 167 163 108 38 18 11 22 34 40 42 39 37 34 29 30 29 27 24 22 20 17 16 14 13 11 9 9 7 8 8 7 6 5 6 4 3 360 355 351 347 344 340 337 334 332 329 326 323 319 316 313 311 309 307 306 305 303 301 299 297 294 290 285 280 275 271 271 274 273 271 268 264 262 263 263 263 263 261
170 165 164 164 163 168 175 179 186 182 23 4 18 38 46 45 46 43 39 36 33 32 28 24 21 19 17 16 16 14 13 12 10 8 6 6 5 4 4 3 4 3 2 2 358 354 349 345 340 335 332 329 326 324 321 316 312 310 309 307 306 304 303 302 300 298 296 294 291 287 283 279 275 273 274 274 273 271 268 264 262 263 263 261 261
171 169 167 168 169 175 182 187 195 195 206 210 76 63 60 48 46 42 38 35 31 29 24 20 19 16 16 15 14 13 13 12 9 8 6 5 4 3 3 2 2 1 360 358 358 355 351 347 341 335 331 327 324 322 320 317 311 307 305 303 302 302 301 300 299 298 296 294 292 288 285 281 278 275 272 271 271 271 271 268 263 263 263 261 261
174 172 169 171 176 181 186 190 194 193 196 192 152 108 75 50 44 39 34 33 30 26 22 19 18 15 13 12 12 12 11 10 8 6 5 4 3 3 2 1 360 359 358 355 354 352 349 347 343 337 332 327 323 321 319 316 313 310 306 301 298 295 296 296 297 296 295 295 293 290 287 283 280 277 273 269 268 268 269 269 266 263 262 260 260
177 174 173 176 181 185 188 189 191 194 196 193 169 139 101 58 39 32 31 30 26 21 17 15 14 12 9 8 8 8 8 8 7 5 4 3 2 1 0 360 358 356 355 353 352 350 347 344 342 339 336 331 325 321 318 314 312 310 308 305 300 295 292 291 291 292 293 293 292 290 287 284 281 278 276 273 269 268 268 268 267 264 261 259 258
176 173 176 180 185 187 189 191 191 197 199 196 185 170 169 94 27 22 24 19 18 13 10 8 7 6 3 4 4 3 3 2 3 4 2 1 360 359 358 357 355 354 353 351 349 347 345 343 342 339 336 331 324 320 316 311 308 306 305 304 302 299 296 292 288 287 288 289 289 289 288 286 283 280 278 276 273 270 268 268 266 264 263 261 258
178 177 181 183 188 189 190 194 194 202 204 201 196 190 199 203 343 0 7 4 9 5 2 0 359 359 355 357 358 357 356 355 358 360 359 359 357 357 356 354 352 351 350 348 346 344 342 342 342 338 334 330 323 318 313 309 306 303 301 300 298 297 296 294 292 288 285 284 285 285 286 286 284 282 280 278 275 271 269 268 266 264 263 261 259
184 182 184 186 190 191 193 197 199 206 206 204 203 198 210 233 304 341 352 353 360 356 351 349 350 351 347 348 351 350 347 348 352 355 356 356 355 354 353 351 349 348 346 345 343 341 340 338 337 337 332 328 325 321 315 308 303 298 297 294 292 293 293 292 292 290 288 284 281 280 281 282 282 282 280 277 275 272 269 267 266 264 262 261 259
187 186 189 190 192 192 194 199 202 208 208 208 207 207 223 248 289 319 334 338 343 340 335 335 340 343 340 340 342 343 340 343 347 350 352 352 352 351 349 349 347 344 342 341 340 339 338 334 333 334 330 325 322 320 318 312 304 299 296 291 288 289 288 288 288 289 288 285 282 279 277 277 279 280 280 279 276 274 270 266 264 263 261 259 258
190 191 195 197 195 194 195 198 203 208 209 212 213 219 228 247 272 288 305 319 324 323 320 324 334 335 332 333 335 338 338 340 344 345 348 349 349 347 345 345 343 340 338 336 336 335 335 333 330 330 328 324 317 315 315 312 307 304 300 294 289 287 286 285 285 285 283 281 280 280 279 277 276 276 278 279 276 274 271 266 263 261 260 258 256
192 195 199 200 196 195 196 199 204 207 210 216 218 227 235 248 263 272 288 309 314 312 312 318 328 329 330 332 332 335 336 339 340 341 344 346 345 344 342 342 340 336 333 332 332 332 332 331 328 327 326 324 320 319 317 311 305 302 298 297 294 288 285 284 283 283 280 277 277 277 278 277 275 273 273 274 275 273 269 265 261 258 258 256 254
194 196 197 197 195 194 196 200 204 205 209 215 218 229 238 250 263 273 285 308 313 304 307 315 322 325 329 330 329 332 334 335 336 338 341 342 342 341 339 339 337 334 331 329 328 327 328 327 325 324 323 322 321 322 323 317 307 300 296 295 295 290 287 285 281 279 278 278 277 275 274 273 274 274 272 270 273 274 268 264 260 256 257 256 254
194 196 195 195 195 194 199 202 202 204 208 213 218 230 239 251 268 283 296 312 316 306 306 314 318 323 329 329 328 330 329 330 332 335 338 339 338 337 336 336 334 331 327 324 324 323 323 323 323 323 321 320 318 319 324 321 311 307 304 299 296 288 285 287 283 278 276 277 276 273 272 271 272 275 275 271 270 272 268 263 258 255 255 255 253
192 194 195 195 194 196 204 203 201 204 207 213 220 233 244 256 273 290 304 314 319 312 311 315 315 318 325 325 324 324 323 326 329 332 335 336 336 335 334 332 330 328 323 321 321 320 320 322 323 321 318 314 309 310 320 322 312 311 313 307 303 296 284 277 276 276 273 271 271 270 271 272 272 273 275 273 270 269 266 263 259 255 254 254 251
192 193 195 195 194 198 204 202 201 205 207 213 222 236 250 260 274 289 302 309 313 312 311 313 314 316 321 320 319 319 320 323 327 330 332 334 335 333 331 330 327 325 321 318 318 318 318 319 319 317 314 309 301 300 305 304 301 305 304 294 304 315 299 269 254 267 270 268 268 268 270 271 271 273 276 275 272 270 268 264 261 257 254 253 250
192 194 194 194 195 199 203 201 202 205 206 213 224 238 250 256 271 283 294 299 304 309 309 310 313 315 316 316 316 318 320 324 328 330 331 333 333 332 330 327 324 322 319 315 313 314 314 314 314 311 307 304 299 293 287 279 282 292 297 289 300 308 293 295 307 288 278 270 270 269 268 269 270 274 276 275 273 273 273 272 267 261 256 254 251
194 195 194 194 196 200 203 202 203 204 206 214 223 236 245 251 263 275 285 293 298 303 306 309 312 311 310 312 314 316 319 323 328 330 331 331 330 329 327 324 321 319 315 312 310 310 310 308 307 303 297 294 294 293 286 271 262 257 257 274 293 281 272 309 322 299 285 270 269 270 266 268 272 274 275 275 275 277 277 275 273 269 262 256 251
197 197 195 195 198 201 202 201 203 204 206 213 222 234 244 249 257 266 277 288 295 298 301 304 307 305 305 307 312 315 317 322 328 330 330 329 327 326 323 319 316 313 311 308 306 306 306 304 302 296 289 284 286 289 285 273 263 251 242 248 257 260 276 304 314 299 294 278 267 269 267 267 270 272 273 273 275 277 278 277 276 274 271 263 252
198 197 196 197 199 201 202 201 202 203 207 212 221 236 244 247 255 264 273 281 286 294 300 301 301 303 304 306 312 318 322 325 329 330 329 328 325 323 319 315 311 309 307 303 301 301 300 298 296 289 284 281 277 280 282 282 276 259 242 245 252 256 262 273 276 283 298 288 269 267 271 271 270 272 273 271 271 274 277 278 279 278 275 270 260
197 196 197 198 199 200 201 200 201 203 208 212 221 239 246 247 254 262 270 274 278 288 298 299 298 301 304 308 313 318 324 327 328 328 328 326 323 320 317 313 310 308 305 301 299 298 296 293 291 285 281 278 271 272 278 280 278 269 254 251 256 257 257 258 259 263 277 287 283 275 273 276 274 271 270 269 268 269 272 276 278 280 277 272 269
196 196 197 197 198 199 199 199 200 203 208 213 224 240 246 248 253 258 267 274 278 286 293 294 297 300 302 308 312 315 323 327 328 328 327 324 322 318 315 312 309 307 304 300 298 297 295 291 288 284 279 277 272 269 272 273 271 270 268 264 261 260 258 256 255 256 257 268 280 282 277 279 276 270 266 264 264 263 268 275 276 277 277 273 271
196 197 197 197 197 197 196 197 201 204 208 215 225 239 243 245 251 257 266 275 281 287 291 294 299 301 303 308 310 313 321 326 327 326 324 322 319 316 313 310 307 305 301 299 298 297 295 293 289 285 280 276 273 267 266 268 268 268 267 265 266 264 261 259 254 253 255 258 265 274 277 277 274 271 266 260 259 262 267 272 273 273 274 273 270
197 197 197 197 196 195 195 197 201 204 208 215 227 238 240 244 251 256 264 273 281 287 290 295 301 304 306 309 311 316 323 325 324 323 321 320 317 313 310 307 305 302 299 298 297 296 295 293 290 286 281 275 271 268 266 265 265 266 265 261 263 263 259 259 258 257 257 256 261 268 272 273 272 272 269 262 258 261 264 265 268 271 271 273 271